Theta_e
311 312 311 312 312 312 313 312 313 313 313 313 312 313 313 312 312 312 311 311 311 311 311 311 311 311 312 313 313 314 314 315 315 316 316 316 316 316 316 316 316 316 316 316 315 315 315 315 314 314 314 314 314 313 313 313 312 312 312 311 311 312
310 310 310 311 310 310 312 311 312 312 312 312 312 312 312 311 311 311 311 311 311 311 311 311 311 311 311 311 312 313 313 313 314 314 314 315 316 316 315 316 315 315 315 315 315 314 314 314 314 313 313 313 313 312 312 312 311 312 312 311 310 310
309 309 308 309 309 309 310 310 311 311 311 311 310 311 311 311 310 310 310 310 310 310 310 310 310 311 311 311 311 311 311 312 312 313 313 314 314 314 314 315 314 314 314 314 314 313 313 313 313 312 312 312 312 312 312 312 311 311 311 311 310 309
308 308 308 308 307 308 309 309 309 309 310 310 309 310 310 309 309 309 309 309 309 309 309 310 310 310 310 310 310 311 311 311 311 312 312 313 313 313 313 313 313 313 313 313 313 313 312 312 312 312 312 311 312 312 312 312 311 311 311 310 310 309
308 307 308 307 306 307 307 307 308 308 309 309 309 310 309 309 310 309 310 309 309 310 309 310 310 309 310 310 310 310 310 310 311 311 311 311 312 312 312 312 312 312 312 312 312 312 312 312 311 311 311 311 311 312 312 312 311 311 311 310 309 309
307 305 306 305 305 305 305 306 307 307 308 308 308 308 308 309 310 309 310 309 310 310 310 309 309 309 309 309 309 310 310 310 310 310 310 310 311 311 311 311 311 311 311 311 312 312 311 311 311 310 310 310 311 311 311 312 311 310 310 310 309 308
305 304 304 303 303 303 304 304 304 305 306 305 305 306 306 308 308 309 309 309 310 310 309 309 309 308 308 308 308 309 309 309 309 309 310 310 310 310 310 310 310 310 311 311 311 311 311 311 310 310 310 310 310 311 311 311 310 309 309 309 309 308
303 302 301 301 302 301 301 302 302 302 303 303 303 304 305 307 307 308 309 309 309 309 309 309 308 308 308 308 308 308 308 308 308 308 309 309 309 309 309 310 310 310 310 310 311 311 311 311 310 310 310 310 310 310 310 310 309 308 308 308 308 308
300 299 300 300 300 300 300 300 300 301 302 303 303 303 304 305 306 307 307 308 307 308 308 308 308 308 308 308 308 307 307 307 307 307 308 308 308 308 309 309 309 309 309 309 310 310 310 310 310 309 309 309 309 309 309 309 308 307 306 306 307 307
301 298 299 299 299 300 300 301 302 302 302 302 303 303 303 304 305 306 306 306 306 306 307 307 307 307 307 307 307 307 307 307 307 307 307 307 307 307 308 307 307 308 308 308 308 309 309 309 309 309 309 309 309 308 308 308 307 306 305 305 305 306
301 298 298 299 299 299 300 301 302 302 303 303 303 303 304 304 305 305 305 306 305 305 305 305 306 306 306 307 306 306 307 306 306 306 306 306 306 306 306 306 306 306 306 307 307 308 308 308 308 308 308 308 308 307 307 307 306 305 304 304 304 304
298 297 298 299 298 298 298 299 300 300 301 302 303 304 304 304 305 305 305 305 305 305 305 305 305 306 306 306 306 305 306 305 306 306 305 305 305 305 305 305 305 305 305 306 306 307 307 307 308 308 308 308 307 307 306 306 305 304 303 303 303 303
296 296 298 298 298 298 298 298 299 299 300 301 302 303 303 303 304 304 304 304 304 304 304 304 304 304 305 305 305 305 304 304 304 304 304 305 304 305 305 304 304 305 305 305 305 305 306 306 307 307 307 307 306 306 305 305 304 304 303 303 303 302
297 296 297 297 298 298 297 298 298 299 300 301 301 302 303 303 303 303 303 303 302 302 302 301 302 302 303 303 304 304 304 304 304 303 303 303 303 303 303 303 304 304 304 304 304 304 305 305 306 306 306 306 305 305 305 304 304 303 302 302 302 301
297 296 297 298 297 298 297 297 298 298 299 300 301 302 302 303 303 303 302 303 302 301 300 300 300 300 301 302 302 303 303 304 304 303 302 302 302 302 302 302 302 302 302 303 303 303 304 304 305 305 305 305 304 304 304 303 303 302 302 301 301 300
297 297 298 297 297 297 297 296 297 298 298 299 301 301 301 301 302 301 301 302 302 301 301 300 300 300 301 301 301 301 302 302 303 303 302 302 301 301 301 301 301 301 301 301 302 302 302 303 303 303 303 304 303 303 303 302 302 302 301 301 300 299
297 297 297 297 297 297 297 296 297 298 299 299 299 300 300 300 300 299 299 300 301 301 300 300 300 301 301 301 301 300 300 301 301 301 301 301 301 301 301 301 301 301 301 301 301 301 301 302 302 302 302 302 302 302 302 301 301 301 300 300 299 299
297 297 297 297 296 296 296 297 297 298 299 299 299 299 299 299 298 298 298 299 299 299 299 299 299 299 300 300 299 299 299 298 299 299 299 300 300 300 300 300 300 300 300 301 300 300 300 301 301 301 301 301 301 300 300 300 300 299 299 299 298 298
297 297 297 296 296 296 296 296 297 298 298 299 299 299 299 298 298 297 297 298 298 298 298 298 298 298 299 298 298 298 297 297 297 297 298 298 298 299 299 299 299 299 299 299 299 299 300 300 300 300 300 300 300 299 299 299 298 297 297 297 297 297
296 296 296 296 296 296 296 296 297 297 297 298 298 298 297 297 296 295 296 297 297 298 299 298 298 298 298 298 298 297 297 297 297 296 296 297 297 298 298 298 298 298 298 298 299 298 298 299 299 299 299 299 298 298 298 297 296 296 295 295 295 295
296 296 296 295 295 296 295 295 296 296 296 296 296 296 295 295 294 294 294 295 297 298 298 298 298 298 297 297 297 297 296 296 296 296 296 296 296 296 297 297 297 297 298 298 298 298 297 298 298 298 298 298 297 297 296 296 295 294 294 294 294 294
295 295 295 295 295 295 295 295 295 295 295 295 295 296 294 293 293 293 294 295 297 298 298 298 298 298 297 297 296 297 296 296 296 296 295 295 295 295 295 295 295 296 296 296 297 297 296 296 297 297 297 297 296 296 295 294 293 293 293 293 293 292
294 294 294 294 294 294 294 294 294 294 294 293 294 294 293 292 292 292 293 295 296 297 299 299 298 297 297 296 295 295 296 296 295 295 295 294 294 294 294 294 294 294 295 295 295 295 295 295 295 296 296 295 295 295 294 293 292 292 292 292 292 291
293 293 293 293 292 292 292 292 292 292 292 291 292 292 291 290 290 290 291 293 295 296 298 298 298 297 296 295 294 294 295 295 295 294 294 294 293 293 293 293 293 293 293 294 293 293 294 294 294 294 294 294 294 294 293 292 292 292 292 291 291 290
291 291 291 291 291 291 290 290 290 290 290 290 290 290 289 288 288 288 290 291 293 294 295 296 296 296 295 294 293 292 293 294 293 293 293 293 292 292 292 292 292 291 291 292 292 292 292 293 293 293 293 293 292 292 292 291 291 291 291 290 290 289
289 289 289 289 288 288 289 289 289 288 288 289 289 288 288 287 287 288 289 290 292 293 293 294 294 294 294 293 291 291 292 292 292 292 292 291 291 291 290 290 290 290 289 290 290 291 291 292 292 292 292 292 292 291 291 290 290 290 290 289 289 288
286 286 286 287 287 287 287 287 287 287 287 287 286 286 286 286 286 287 289 289 290 291 291 292 293 294 293 292 290 290 290 290 290 290 290 290 289 289 289 289 289 288 288 288 288 289 290 290 291 291 291 291 291 290 290 289 289 289 289 289 288 288
284 284 284 285 286 286 285 285 285 285 285 285 285 284 285 285 285 286 287 287 289 289 288 289 291 292 291 291 290 289 289 288 288 289 289 289 288 288 288 288 288 288 287 287 287 288 289 289 289 289 289 290 290 289 289 288 288 288 289 288 287 287
282 282 283 283 283 283 283 282 282 283 283 283 283 283 283 283 284 284 284 285 286 288 287 287 288 289 289 289 288 288 288 288 287 287 288 288 287 287 287 287 287 287 287 287 287 288 288 288 288 288 288 289 289 288 288 287 287 288 288 287 287 286
281 281 280 280 280 280 280 280 280 280 280 281 281 282 282 282 282 282 282 282 283 284 285 285 285 286 286 287 287 286 287 287 287 287 287 287 287 287 287 287 287 287 287 287 287 287 287 287 287 287 288 288 288 287 287 287 287 288 288 287 286 285
279 278 278 277 277 277 277 278 278 279 279 279 280 281 281 281 280 280 280 281 281 282 282 283 283 284 284 285 285 285 286 286 286 285 287 288 287 287 287 287 287 287 287 287 287 287 287 287 288 288 288 288 288 287 287 287 287 287 287 286 285 285
275 275 275 275 274 274 275 276 276 277 277 278 279 279 279 279 279 279 279 279 280 280 281 281 282 282 283 283 284 284 285 286 286 285 285 286 287 287 287 287 287 287 287 287 287 287 287 287 287 287 287 287 287 287 286 286 287 287 286 286 285 285
273 272 272 272 272 272 273 274 275 276 277 278 278 277 277 277 277 277 278 278 278 279 279 280 281 281 282 282 282 283 283 284 286 286 285 285 286 286 286 286 286 287 286 286 287 286 286 286 287 286 286 286 286 286 286 286 286 286 286 285 285 284
270 270 270 270 270 271 272 273 275 276 277 277 276 275 275 276 276 276 277 277 277 277 278 279 279 280 281 281 282 283 283 283 284 286 286 286 285 286 286 286 286 286 287 287 287 286 286 286 286 286 286 286 286 286 286 286 286 285 285 285 285 284
268 268 268 269 270 271 273 274 275 275 275 274 274 274 275 275 275 275 275 275 276 276 277 277 278 279 280 281 282 282 283 283 283 284 285 286 285 285 286 286 286 286 287 287 286 286 286 286 285 285 285 285 285 286 286 286 286 285 285 285 285 284
267 267 268 269 270 272 273 273 273 272 273 273 274 274 274 275 274 274 274 274 275 275 275 276 277 278 279 281 281 282 283 283 284 284 284 285 285 285 285 286 286 286 286 286 286 286 285 285 285 285 285 285 285 285 286 286 285 285 285 285 284 284
266 267 268 270 271 271 271 270 270 271 272 273 273 274 274 274 273 273 273 273 273 274 275 275 276 277 278 279 281 282 282 283 284 284 284 284 284 285 285 285 286 286 286 286 286 286 285 285 285 285 285 285 285 285 286 286 285 285 285 285 284 284
266 267 269 269 268 268 267 268 269 270 271 271 272 273 272 272 272 272 272 272 272 273 274 274 275 276 277 278 279 280 282 283 283 284 284 284 284 284 285 285 285 285 285 285 285 285 285 285 285 285 285 285 285 286 286 285 285 285 285 285 285 284
Wind_Speed
13 15 16 15 15 14 14 13 12 11 12 13 14 15 17 17 18 18 17 17 18 18 19 20 21 22 22 22 23 23 25 26 26 26 27 27 27 28 27 27 27 27 27 27 28 28 28 28 28 28 28 29 31 32 33 33 31 31 32 32 33 36
12 13 15 15 16 16 14 13 12 12 13 15 16 17 18 20 21 20 20 19 18 18 18 19 20 21 22 22 22 23 25 25 25 25 26 26 27 27 27 27 27 27 27 27 27 28 28 28 28 28 28 29 31 32 31 31 30 31 33 32 32 34
13 15 16 16 17 18 16 14 13 13 15 16 17 17 19 21 21 21 21 21 20 20 18 17 18 19 20 22 22 24 25 25 26 25 25 25 26 26 26 26 26 26 26 26 27 27 28 28 27 27 28 29 31 31 31 31 31 33 34 33 33 33
15 17 18 18 19 20 18 16 15 15 15 16 15 16 18 19 20 20 20 21 21 21 20 18 18 17 19 20 22 24 25 25 26 26 26 27 27 27 27 27 26 26 26 26 27 27 28 28 28 28 28 29 31 31 31 31 32 33 34 33 33 34
14 17 18 19 20 20 19 18 17 16 16 16 16 16 17 17 17 17 17 18 19 19 20 20 20 19 19 20 22 23 24 25 25 25 26 27 28 28 28 28 28 28 27 27 28 28 28 29 28 28 28 29 30 31 32 32 32 33 34 33 33 33
12 15 17 18 19 19 19 19 18 18 18 18 18 18 17 17 17 17 17 17 17 18 19 20 21 21 22 22 23 23 24 25 25 25 26 27 27 28 28 28 28 28 29 29 29 29 29 30 29 29 29 29 31 32 32 32 32 34 34 33 33 32
8 9 11 13 15 17 18 19 19 19 20 19 19 20 20 20 19 19 20 19 19 20 20 21 21 22 22 23 23 23 23 24 24 25 25 26 27 28 28 29 29 29 30 30 31 31 31 31 30 29 29 30 31 32 32 32 32 33 34 33 33 32
3 6 9 11 12 14 16 17 18 20 21 21 21 22 21 21 21 21 21 22 22 22 22 22 22 22 23 23 23 23 23 23 24 24 25 25 26 27 28 29 30 30 31 32 32 32 33 32 31 30 31 31 31 32 32 33 32 32 33 34 33 32
5 7 9 10 11 13 15 16 19 22 23 24 24 23 23 22 21 20 21 21 22 23 22 22 22 23 23 24 24 25 24 24 24 24 24 24 26 27 27 28 29 30 31 32 32 33 33 33 32 32 32 32 32 32 32 33 32 32 32 33 33 33
8 11 14 15 18 21 23 24 24 25 25 26 26 26 25 24 23 22 23 23 23 23 22 22 22 22 23 24 25 25 25 25 25 24 24 24 25 27 27 27 28 29 29 31 32 33 33 33 33 33 33 33 32 32 33 33 32 31 32 33 33 34
9 13 17 20 23 26 27 28 28 28 28 28 28 28 27 26 26 25 25 24 24 24 23 23 23 22 23 23 24 24 25 25 25 25 25 25 26 26 27 27 27 27 29 30 31 33 33 34 35 34 33 33 33 33 33 33 32 31 31 32 33 33
9 13 17 20 23 24 25 26 27 27 27 28 29 29 28 28 27 27 26 25 24 23 23 23 23 23 23 23 23 24 24 24 25 25 26 26 26 26 26 26 26 27 28 30 31 32 33 35 35 35 34 34 34 33 33 32 32 30 30 31 32 33
10 14 16 18 21 22 23 24 25 26 27 29 29 29 29 28 28 28 27 26 25 24 24 24 24 24 24 24 24 24 24 24 24 25 26 26 26 26 26 26 27 28 28 29 31 32 34 35 35 34 34 34 34 33 33 32 32 30 29 30 31 32
9 12 14 16 19 21 22 23 24 26 28 28 28 28 29 29 28 28 28 28 27 27 27 27 27 27 26 26 26 26 26 26 26 26 26 26 26 26 25 26 27 28 28 29 30 32 33 34 34 34 34 33 33 32 32 32 31 30 29 30 31 32
8 10 12 14 17 19 19 20 22 24 26 26 27 28 29 29 29 29 29 30 31 31 31 31 31 31 30 29 28 28 28 27 28 27 26 27 26 26 27 27 27 28 28 28 30 32 33 33 33 33 33 33 32 32 31 31 31 30 29 30 31 31
10 12 13 14 16 17 17 18 20 22 24 24 26 27 28 29 29 29 30 31 32 33 33 34 34 34 34 33 31 31 30 29 28 27 27 27 26 26 27 28 28 29 29 28 29 31 33 33 32 32 32 32 32 31 30 31 31 30 30 30 30 30
12 15 16 17 17 17 19 20 22 24 24 24 25 27 28 28 28 28 30 32 32 33 34 35 35 35 35 35 33 32 31 30 29 28 27 27 26 27 27 27 28 29 29 29 29 31 33 33 31 31 31 31 30 29 29 30 31 31 30 30 30 30
13 15 16 18 18 19 21 23 24 26 27 26 27 28 29 29 29 31 32 34 34 34 35 35 35 35 35 35 34 34 32 31 30 29 28 27 28 27 27 28 28 28 29 29 29 30 33 33 31 29 30 29 29 28 28 29 31 31 31 30 30 29
13 15 17 19 19 20 23 24 25 26 27 27 28 30 30 29 30 32 34 35 35 36 36 35 35 36 36 35 35 35 34 32 32 31 29 28 29 29 28 28 29 28 29 29 29 30 32 33 30 29 29 28 27 27 28 29 30 30 30 30 29 28
13 15 17 19 20 21 23 24 25 25 26 27 28 29 29 29 30 32 34 35 35 36 36 35 35 35 36 36 35 35 35 34 33 32 30 29 31 31 30 29 29 30 29 29 29 29 31 33 31 28 28 27 26 26 28 29 29 29 29 29 28 27
14 16 17 19 21 22 23 24 24 24 25 26 28 28 27 28 31 33 34 35 35 35 35 35 35 35 34 35 35 34 34 34 34 33 32 30 31 32 32 30 30 31 30 29 29 29 29 31 30 28 27 27 25 25 27 28 28 28 28 27 27 27
15 18 20 21 22 23 23 24 24 25 25 27 28 27 28 29 32 33 34 34 35 35 35 35 35 35 34 34 35 35 34 33 33 33 33 32 31 32 32 31 30 32 32 30 29 29 29 29 29 28 26 26 25 25 26 27 27 27 27 26 27 26
14 16 18 19 20 21 22 22 23 24 25 26 26 27 28 30 32 32 33 34 34 35 35 35 35 35 35 34 34 34 35 33 33 33 32 33 32 32 33 33 31 32 34 32 29 29 28 28 28 28 26 25 25 25 25 27 28 28 27 27 27 26
13 14 16 17 18 19 20 20 20 21 23 24 25 26 28 30 31 32 33 34 34 34 35 35 35 35 36 35 34 34 35 34 33 32 32 31 32 32 32 33 32 32 34 34 31 29 28 26 26 27 26 25 25 25 26 27 29 29 28 27 26 25
12 14 16 17 17 18 18 17 17 19 21 23 26 27 29 30 31 32 33 34 34 35 35 36 37 36 36 36 34 33 34 35 34 33 32 30 30 30 31 32 31 30 33 35 33 30 27 26 25 26 26 26 26 26 26 27 28 28 27 27 26 25
12 14 15 16 17 17 16 15 16 18 20 23 26 28 30 31 31 32 33 34 34 35 36 36 37 37 37 36 34 33 34 34 33 34 33 30 28 28 29 31 29 27 29 32 33 31 28 26 26 26 26 26 26 26 26 26 26 25 25 26 26 25
12 14 16 18 19 18 17 16 17 19 21 24 26 28 30 31 31 32 33 34 35 36 36 37 38 38 37 36 34 33 33 33 32 33 33 30 28 26 27 29 28 26 26 28 29 31 30 27 26 26 26 26 26 26 25 25 24 23 24 25 25 24
14 14 17 20 21 21 21 21 20 21 24 26 27 28 28 29 30 31 33 34 35 36 36 37 38 38 37 36 34 32 32 30 29 31 32 31 28 26 27 28 28 26 25 26 27 29 30 29 27 26 26 26 26 26 26 24 23 23 24 25 24 23
17 18 19 21 22 22 23 23 23 23 24 25 26 26 27 28 28 30 32 33 34 36 35 35 37 38 38 37 35 33 33 31 28 28 30 30 27 26 26 27 26 25 24 24 27 28 28 28 26 24 24 25 26 26 25 23 22 22 23 24 24 22
20 20 21 22 23 24 24 25 25 24 23 24 25 25 26 28 28 30 32 31 31 32 32 32 33 35 36 37 36 34 33 33 30 28 30 30 27 26 27 27 26 26 25 25 26 26 25 25 24 23 24 25 25 25 23 22 22 22 24 25 24 22
19 21 22 23 23 24 26 27 26 24 23 23 23 24 26 28 30 31 32 31 30 30 30 30 32 32 32 35 36 35 34 33 30 28 32 34 29 26 27 29 29 29 27 26 27 24 22 24 25 23 24 25 24 23 23 23 23 24 25 25 24 21
19 21 22 23 24 25 26 27 26 24 23 22 22 24 26 28 29 30 30 29 29 30 30 31 32 32 31 31 33 35 37 37 33 27 28 32 31 27 25 27 30 30 28 28 29 26 24 27 28 25 24 24 24 23 23 24 24 24 25 24 22 21
19 20 22 24 25 25 25 25 25 23 22 22 23 25 26 26 26 28 28 27 28 30 31 31 32 33 32 31 30 30 32 36 39 35 29 27 27 27 26 26 28 29 27 28 31 30 29 29 29 27 25 25 24 22 22 23 24 24 24 23 21 21
20 21 23 24 24 24 24 23 21 20 21 24 25 26 26 25 25 26 28 28 29 31 31 31 31 31 31 31 30 28 27 28 32 37 37 30 25 24 25 25 26 27 27 28 30 30 30 29 27 26 26 25 23 21 21 22 23 23 23 22 21 21
22 23 24 24 24 23 22 20 19 22 25 26 25 25 26 26 25 26 28 29 29 31 31 30 30 30 30 29 29 28 27 25 23 27 34 36 32 28 26 25 25 26 27 28 29 29 30 29 28 27 26 24 22 20 20 21 23 22 22 23 24 22
25 24 24 24 23 21 19 20 24 27 26 24 24 25 26 25 25 26 27 27 27 30 31 30 29 30 30 30 29 27 27 27 25 24 26 30 31 30 28 27 25 24 25 26 27 27 27 27 27 27 26 25 22 21 21 21 22 22 23 25 26 23
26 24 23 22 21 20 22 24 25 25 24 25 26 26 25 25 26 27 27 26 25 27 30 30 30 30 29 30 30 28 27 27 27 26 25 25 25 25 27 28 27 24 24 25 25 25 25 25 25 25 25 25 23 21 21 22 23 23 23 25 26 24
24 22 21 21 23 25 27 25 23 23 25 26 25 25 26 27 28 29 30 30 28 28 29 31 32 31 30 30 30 30 29 29 28 27 26 26 25 25 26 27 28 27 25 25 25 25 25 24 23 22 23 24 23 23 24 25 23 22 22 24 24 24
Wind_Direction
24 23 21 17 14 7 357 351 347 350 349 344 342 339 336 335 332 329 326 319 313 307 301 295 288 282 279 277 277 274 270 270 270 271 272 272 272 272 271 271 270 270 270 270 270 270 269 268 267 267 266 264 263 263 263 264 264 263 263 264 266 265
18 19 17 15 14 9 1 349 342 342 341 338 335 331 333 336 335 333 330 325 319 312 307 303 297 291 285 283 280 276 274 274 274 274 275 275 274 272 272 272 272 272 272 272 272 271 270 269 268 267 266 265 265 264 265 266 267 264 262 266 270 268
7 13 15 16 18 17 16 7 355 347 342 339 335 331 333 337 336 334 330 326 322 316 312 308 303 298 291 287 284 281 280 279 277 277 277 276 275 273 272 273 274 275 275 274 274 273 272 270 270 269 266 265 265 264 264 265 265 262 260 265 269 266
2 6 9 14 16 17 20 17 8 0 355 352 346 338 339 340 337 334 330 327 324 320 318 315 310 305 299 293 289 286 286 285 283 282 280 278 277 276 274 275 276 277 276 275 274 274 273 272 270 269 267 265 265 263 262 262 262 262 261 264 267 265
354 0 6 10 12 13 16 17 15 12 7 4 358 352 350 347 343 340 335 331 330 329 327 325 321 316 310 305 301 297 295 293 290 288 284 283 282 280 278 278 278 277 276 274 274 273 272 272 270 268 266 265 264 263 262 261 261 261 261 263 267 268
350 2 4 5 8 11 15 18 18 17 15 12 7 2 0 359 354 350 345 342 341 340 336 334 331 326 321 318 313 309 306 302 298 294 290 288 287 284 282 281 280 278 276 274 273 273 271 270 269 267 266 265 264 263 262 261 261 261 261 264 268 270
349 4 4 6 10 14 17 19 18 16 15 14 10 6 6 5 1 356 353 351 349 348 347 345 342 337 332 328 323 319 315 309 305 301 298 294 292 289 287 285 282 279 277 275 274 274 273 272 270 268 267 266 264 263 262 262 262 263 264 266 269 270
18 21 15 17 18 17 18 18 16 13 13 15 14 10 8 5 1 359 356 354 352 352 354 352 349 344 339 335 330 326 322 317 312 308 304 301 297 294 291 287 284 281 278 277 276 274 273 273 271 269 268 267 265 263 262 261 262 264 266 267 268 270
48 32 21 20 18 16 17 16 14 12 12 14 15 13 11 7 3 1 359 357 356 355 355 353 350 345 341 337 334 331 328 324 320 314 311 306 300 296 293 289 287 284 281 279 277 275 273 272 270 268 268 266 264 263 262 261 261 264 267 268 268 271
15 12 10 12 13 13 14 14 12 12 11 10 11 11 11 9 6 5 3 1 0 358 356 353 350 345 341 338 335 333 331 329 324 320 315 309 303 299 297 294 291 287 283 280 277 274 272 270 268 267 266 265 264 263 261 261 261 264 267 269 269 271
359 2 4 7 11 10 10 9 8 9 9 8 8 8 8 8 7 7 6 4 2 359 355 352 349 345 342 339 337 335 333 330 327 323 317 312 308 304 301 297 293 288 284 280 277 274 271 268 267 267 266 265 264 263 261 261 261 264 268 269 270 271
359 3 4 6 8 6 5 4 3 3 3 3 5 6 6 6 5 6 6 6 3 359 354 351 348 344 342 339 338 336 333 330 326 322 318 315 311 308 305 300 294 289 285 282 279 275 271 268 267 267 267 266 265 264 262 262 262 264 268 270 269 270
2 5 3 2 2 2 2 0 359 0 1 1 2 3 4 4 4 5 5 4 2 358 355 352 349 347 344 341 338 336 334 331 328 323 320 317 314 311 307 301 295 291 288 284 281 277 274 272 271 270 269 268 266 264 263 263 263 265 268 269 269 269
360 358 356 357 359 1 2 360 359 359 359 360 1 2 3 3 3 3 2 1 359 357 355 353 350 349 348 345 342 338 336 333 330 327 323 319 317 313 307 302 297 294 291 287 283 279 277 275 274 273 271 269 267 265 265 264 263 264 268 270 269 269
351 351 353 358 359 0 2 1 358 357 356 359 0 1 2 2 3 2 0 359 357 355 353 351 349 347 347 346 343 339 337 334 331 330 327 323 320 315 309 305 301 298 294 290 285 283 281 279 277 275 272 270 268 265 265 264 262 264 269 270 269 268
354 356 358 1 360 0 3 1 357 355 356 359 0 1 1 0 1 360 357 356 356 353 351 350 347 346 345 344 342 338 336 334 331 330 328 325 321 316 312 309 305 301 297 293 290 287 285 282 280 278 274 271 269 266 265 263 261 263 269 270 268 267
356 355 357 0 0 2 3 0 357 356 357 359 359 359 359 358 357 356 354 352 352 351 350 348 346 344 343 341 339 336 335 333 330 329 328 324 319 315 312 308 305 302 299 296 293 289 287 285 283 281 277 273 270 268 265 262 260 260 265 267 266 265
355 353 354 357 1 4 3 0 358 357 358 359 358 357 357 356 355 353 350 348 348 347 347 346 344 342 341 339 337 334 333 332 329 328 326 322 317 313 310 307 304 301 299 297 293 288 287 287 286 283 280 276 272 268 265 262 259 259 261 263 264 265
360 358 358 360 4 5 0 358 357 356 356 357 355 354 354 353 351 349 346 345 344 343 343 343 341 340 339 338 335 333 331 329 327 327 325 320 315 312 309 307 304 301 298 295 292 288 287 288 287 284 281 277 273 268 264 260 259 258 259 261 262 263
3 2 1 1 3 2 357 355 354 352 352 353 351 350 351 350 347 344 342 341 340 340 340 339 338 338 336 335 333 331 329 327 326 325 324 319 314 311 309 307 303 300 296 294 291 289 287 287 287 285 282 278 273 267 263 260 258 257 257 259 260 261
0 1 2 1 359 358 355 351 349 349 348 348 346 347 348 346 342 340 337 336 336 336 337 336 336 335 334 332 331 329 327 325 324 323 322 318 313 310 308 306 302 298 296 293 292 289 286 285 286 284 280 277 272 266 261 258 255 254 254 255 257 257
357 357 358 357 354 353 351 348 346 346 345 344 342 343 344 339 336 335 333 332 333 333 334 334 333 332 332 330 329 327 324 322 322 322 321 319 315 311 308 305 301 298 296 294 292 289 285 284 284 283 279 276 270 264 259 255 251 250 251 253 252 252
354 351 350 349 348 348 348 345 342 341 340 338 336 337 336 333 332 332 331 330 331 331 331 331 331 330 329 328 328 325 322 321 320 319 319 318 315 312 308 306 303 300 298 296 292 289 286 284 283 281 278 274 269 264 257 252 249 249 250 250 250 248
345 341 341 345 346 344 344 341 336 335 333 329 328 330 330 328 329 330 329 328 329 328 328 328 328 327 326 326 327 325 321 320 319 317 316 315 313 310 307 305 304 301 299 298 295 291 288 286 283 280 277 272 268 264 259 253 251 251 250 247 247 245
334 330 332 338 339 340 342 337 331 329 325 322 325 329 327 327 329 329 327 327 327 327 327 327 326 326 325 325 327 325 321 319 318 316 315 313 311 309 305 303 303 301 299 298 296 294 291 289 285 280 277 273 269 266 262 257 255 253 248 244 245 243
325 322 326 332 336 339 341 337 329 324 319 321 326 328 327 328 330 328 326 327 326 325 326 325 324 324 324 325 326 324 320 320 319 316 314 311 309 305 301 300 300 298 296 295 296 295 294 291 287 282 277 275 272 268 264 260 257 252 246 244 245 244
324 325 328 333 339 341 340 338 332 322 319 323 327 327 328 329 329 327 326 325 324 323 324 323 322 323 323 324 324 322 319 319 317 313 311 309 305 301 297 295 295 293 291 290 291 293 294 292 289 283 279 276 273 269 264 260 256 249 243 242 243 244
335 334 334 336 340 340 337 337 334 325 323 325 327 329 330 329 328 327 325 324 322 322 323 322 321 321 322 322 322 320 317 315 312 309 307 304 300 297 293 291 291 289 287 286 287 289 292 292 288 283 279 277 273 269 264 257 252 247 242 241 242 242
343 340 337 334 335 336 333 332 330 326 324 326 328 331 331 329 327 324 322 321 320 319 321 321 320 320 320 319 319 318 316 313 309 305 301 298 296 294 291 289 288 286 284 284 286 287 290 289 286 281 278 276 273 269 262 254 246 240 235 233 233 234
340 336 333 329 330 331 329 327 327 327 326 328 331 334 332 328 326 321 318 318 318 317 318 319 317 317 317 316 316 315 312 310 308 302 297 294 291 288 287 286 285 283 282 282 284 287 288 287 282 278 278 278 273 267 259 248 237 230 225 223 223 222
333 329 325 324 326 327 326 326 328 329 331 333 336 337 332 327 324 321 318 318 318 317 318 317 315 314 313 312 312 312 309 307 304 300 297 297 294 287 284 283 280 280 282 281 281 282 282 282 282 282 283 283 277 267 257 245 235 227 223 220 218 212
327 324 321 322 324 325 326 328 329 332 336 338 337 333 329 326 323 319 317 318 318 317 317 316 314 312 311 310 309 310 310 308 306 299 294 296 297 293 285 278 277 278 280 279 278 276 273 276 281 285 285 284 279 271 259 248 239 230 223 218 213 205
326 323 321 321 324 325 326 327 329 335 338 334 330 327 326 326 323 317 316 317 316 315 315 314 312 311 310 308 307 307 308 308 309 306 299 293 295 295 288 278 275 276 275 273 273 274 273 274 277 280 279 279 278 272 259 246 236 228 222 215 204 198
325 322 320 321 323 325 325 326 330 332 328 324 324 326 327 325 321 315 313 314 314 313 313 311 309 309 308 307 307 306 304 304 306 308 306 303 299 296 290 283 278 277 275 272 270 271 271 271 273 275 275 274 273 267 253 238 228 222 218 210 202 200
322 320 320 322 323 324 325 325 323 321 320 321 324 325 323 320 317 313 311 312 312 312 310 308 307 306 304 303 303 302 301 299 296 299 303 305 304 300 294 286 281 279 279 276 272 270 269 269 270 270 270 269 264 254 240 228 220 215 209 202 201 204
321 321 323 324 325 325 323 319 317 319 323 324 323 321 318 315 314 312 309 309 310 309 306 305 304 302 300 299 297 295 294 292 289 287 290 296 300 301 299 293 287 283 281 279 275 270 268 268 267 266 264 262 255 241 228 220 215 210 206 204 205 206
322 324 326 327 325 321 317 316 319 323 326 324 320 318 315 313 314 313 309 307 306 304 302 302 301 300 298 296 294 292 289 287 287 285 282 281 285 289 291 292 290 286 281 278 274 270 266 264 261 260 259 257 248 232 219 213 209 207 206 207 206 204
323 325 327 325 322 318 317 319 323 326 326 324 320 318 316 315 315 313 310 308 307 303 300 299 298 296 295 292 290 289 288 285 283 282 280 278 277 276 278 283 285 285 283 278 272 268 265 260 256 253 251 248 240 225 212 207 205 202 203 205 204 201